"Pseudo-MPEC" for P10Q0Am

Created 2019 Aug 15 23:07:04 UT using Find_Orb

Click here for an explanation of pseudo-MPECs

 
 Astrometry: 
     P10Q0Am  C2019 05 31o'$H61;XbWgALZNBuC@)P?Rywl2MZ(T8*DTo92XpSSAstrometryF51
     P10Q0Am  C2019 05 31vh'c%9F/Xy/1v!D#[1s0/'%Hm7FjohL3Q+LR:*+#[$:_9@JfPZm/F51
     P10Q0Am  C2019 07 27(`!!`Ep)q]4V0fpnKsredacted;d-Q$FjDJ0N*W8gq9B2^8;0uOfF51
     P10Q0Am  C2019 07 27_7TA0NCt`Ayqp)(bJ!l29*MIZj?r'snklB-iqn0p?ZSGB$Gwp37UF51
     P10Q0Am  C2019 07 27`:i=*.clicki1\]#(ZdqQ2'!QbTy^2\)4s8N3'Eii)KL`S,KJ7],F51
     P10Q0Am  C2019 07 27liHGB,YvhdaT9O58G%'P*Tk8:p,-Hxvpyr#3okOYhere-^r6se]RF51
     P10Q0Am  C2019 08 10lg]Xu;N7!6`S20S_3fTYo3@S`V'K9Y=Zpmk3u]h1wAxfor-N]u:7F51
     P10Q0Am  C2019 08 10.0$N=d*explanationxiwXa1(%$tl141.U/o*ljx]xbbd$pa6WM?F51
     P10Q0Am  C2019 08 106Qm\Q$p=f%L[csLb0$$r+^So=I1S^LpisRAQH8=MSkkYS]WNBp'8F51
     P10Q0Am  C2019 08 103P#f0amZP@2Kr4=i\B-M!`)9qX[g_MjPATkh5v.G!Z\?Jx!F+(E2F51

Station data:
(F51) Pan-STARRS 1, Haleakala  (N20.707235 W156.255910)  US/Hawaii.
   Observers N. Primak, A. Schultz, S. Watters, J. Thiel, T. Goggia. Measurer
   PS1 Science Consortium. 1.8-m Ritchey-Chrétien + CCD.

Orbital elements:  P10Q0Am
   Perihelion 2020 Apr 21.127076 +/- 1.32 TT =  3:02:59 (JD 2458960.627076)
Epoch 2019 Aug 10.0 TT = JDT 2458705.5   Earth MOID: 0.6048   Ma: 0.0448
M 238.03543803 +/- 0.6              (J2000 ecliptic)          AutoNEOCP
n   0.47805416 +/- 3.54e-5          Peri.  275.12682 +/- 0.46
a   1.61988671 +/- 8e-5             Node   172.08648 +/- 0.032
e   0.0606484 +/- 0.000896          Incl.   25.99803 +/- 0.020
P   2.06/753.04d           H 20.3   G  0.15   U  6.0  
q 1.52164307 +/- 0.00152    Q 1.71813035 +/- 0.00137
From 10 observations 2019 May 31-Aug. 10; mean residual 0".07
Residuals in arcseconds: 
190531 F51  .00   .12+    190727 F51  .16-  .02-    190810 F51  .04-  .08-    
190531 F51  .00   .12-    190727 F51  .07+  .02-    190810 F51  .07+  .00     
190727 F51  .07+  .01-    190810 F51  .03+  .05+    
190727 F51  .01+  .05+    190810 F51  .05-  .03+    

Ephemerides (geocentric):
Date (UTC) HH   RA              Dec         delta   r     elong  mag " sig PA
---- -- -- --  -------------   -----------  ------ ------ -----  --- ---- ---
2019 08 15 23  21 20 22.820   +16 34 19.11  .72021 1.6720 149.1 21.6 3.41  37
2019 08 16 00  21 20 20.245   +16 33 11.02  .72009 1.6720 149.1 21.6 3.45  37
2019 08 16 01  21 20 17.670   +16 32 02.84  .71997 1.6720 149.1 21.6 3.48  37
2019 08 16 02  21 20 15.095   +16 30 54.59  .71985 1.6720 149.1 21.6 3.52  37
2019 08 16 03  21 20 12.521   +16 29 46.25  .71973 1.6719 149.2 21.6 3.55  37
2019 08 16 04  21 20 09.947   +16 28 37.83  .71961 1.6719 149.2 21.6 3.59  37
2019 08 16 05  21 20 07.373   +16 27 29.34  .71949 1.6719 149.2 21.6 3.63  37
2019 08 16 06  21 20 04.800   +16 26 20.76  .71937 1.6718 149.2 21.6 3.66  36
2019 08 16 07  21 20 02.227   +16 25 12.10  .71925 1.6718 149.3 21.6 3.70  36
2019 08 16 08  21 19 59.654   +16 24 03.36  .71914 1.6718 149.3 21.6 3.74  36
2019 08 16 09  21 19 57.081   +16 22 54.54  .71902 1.6718 149.3 21.6 3.78  36
2019 08 16 10  21 19 54.509   +16 21 45.64  .71890 1.6717 149.3 21.6 3.81  36
2019 08 16 11  21 19 51.938   +16 20 36.66  .71879 1.6717 149.4 21.6 3.85  36
2019 08 16 12  21 19 49.366   +16 19 27.60  .71867 1.6717 149.4 21.6 3.89  36
2019 08 16 13  21 19 46.795   +16 18 18.46  .71856 1.6716 149.4 21.6 3.93  36
2019 08 16 14  21 19 44.225   +16 17 09.24  .71844 1.6716 149.4 21.6 3.97  36
2019 08 16 15  21 19 41.655   +16 15 59.95  .71833 1.6716 149.4 21.6 4.00  36
2019 08 16 16  21 19 39.085   +16 14 50.57  .71821 1.6716 149.5 21.6 4.04  36
2019 08 16 17  21 19 36.516   +16 13 41.11  .71810 1.6715 149.5 21.6 4.08  36
2019 08 16 18  21 19 33.947   +16 12 31.57  .71798 1.6715 149.5 21.6 4.12  36
2019 08 16 19  21 19 31.378   +16 11 21.96  .71787 1.6715 149.5 21.6 4.16  36
2019 08 16 20  21 19 28.810   +16 10 12.26  .71776 1.6714 149.6 21.6 4.20  36
2019 08 16 21  21 19 26.242   +16 09 02.49  .71764 1.6714 149.6 21.6 4.24  36
2019 08 16 22  21 19 23.675   +16 07 52.63  .71753 1.6714 149.6 21.6 4.28  36
2019 08 16 23  21 19 21.109   +16 06 42.70  .71742 1.6714 149.6 21.6 4.32  36
2019 08 17 00  21 19 18.542   +16 05 32.69  .71731 1.6713 149.6 21.6 4.36  36
2019 08 17 01  21 19 15.977   +16 04 22.60  .71720 1.6713 149.7 21.6 4.40  36
2019 08 17 02  21 19 13.411   +16 03 12.43  .71708 1.6713 149.7 21.6 4.44  36
2019 08 17 03  21 19 10.847   +16 02 02.18  .71697 1.6713 149.7 21.6 4.48  36
2019 08 17 04  21 19 08.282   +16 00 51.85  .71686 1.6712 149.7 21.6 4.52  36
2019 08 17 05  21 19 05.719   +15 59 41.45  .71675 1.6712 149.8 21.6 4.56  36
2019 08 17 06  21 19 03.156   +15 58 30.96  .71664 1.6712 149.8 21.6 4.60  36
2019 08 17 07  21 19 00.593   +15 57 20.40  .71654 1.6711 149.8 21.6 4.64  36
2019 08 17 08  21 18 58.031   +15 56 09.76  .71643 1.6711 149.8 21.6 4.68  36
2019 08 17 09  21 18 55.469   +15 54 59.04  .71632 1.6711 149.8 21.6 4.72  35
2019 08 17 10  21 18 52.908   +15 53 48.25  .71621 1.6711 149.9 21.6 4.76  35
2019 08 17 11  21 18 50.348   +15 52 37.37  .71610 1.6710 149.9 21.6 4.81  35
2019 08 17 12  21 18 47.788   +15 51 26.42  .71600 1.6710 149.9 21.6 4.85  35
2019 08 17 13  21 18 45.229   +15 50 15.39  .71589 1.6710 149.9 21.6 4.89  35
2019 08 17 14  21 18 42.670   +15 49 04.29  .71578 1.6709 150.0 21.6 4.93  35
2019 08 17 15  21 18 40.112   +15 47 53.10  .71568 1.6709 150.0 21.6 4.97  35
2019 08 17 16  21 18 37.554   +15 46 41.84  .71557 1.6709 150.0 21.6 5.02  35
2019 08 17 17  21 18 34.998   +15 45 30.50  .71546 1.6709 150.0 21.6 5.06  35
2019 08 17 18  21 18 32.441   +15 44 19.09  .71536 1.6708 150.0 21.6 5.10  35
2019 08 17 19  21 18 29.886   +15 43 07.59  .71525 1.6708 150.1 21.6 5.14  35
2019 08 17 20  21 18 27.331   +15 41 56.02  .71515 1.6708 150.1 21.6 5.19  35
2019 08 17 21  21 18 24.777   +15 40 44.38  .71505 1.6707 150.1 21.6 5.23  35
2019 08 17 22  21 18 22.223   +15 39 32.65  .71494 1.6707 150.1 21.6 5.27  35